Location: ????????
(60.5616°N, 46.8254°E)
Time: 17:34:50
(UTC+00:00)

Cosmos 2219 - Pass Details

Date: 18 February 2020
Orbit: 832 x 862 km, 71.1° (Epoch: 31 March)

Event Time Altitude Azimuth Distance (km) Brightness Sun altitude
Rises 17:14:55 0° 317° (NW) 3,431 7.4 -25.5°
Reaches altitude 10° 17:17:23 10° 320° (NW) 2,497 6.5 -25.8°
Maximum altitude 17:23:08 76° 46° (NE) 891 3.1 -26.5°
Enters shadow 17:23:25 74° 75° (ENE) 899 3.1 -26.5°
